TimePST,TemperatureF,Dew PointF,Humidity,Sea Level PressureIn,VisibilityMPH,Wind Direction,Wind SpeedMPH,Gust SpeedMPH,PrecipitationIn,Events,Conditions,WindDirDegrees,DateUTC
12:53 AM,48.0,43.0,83,30.42,10.0,SSE,3.5,-,N/A,,Scattered Clouds,150,2013-12-14 08:53:00
1:53 AM,45.0,42.1,90,30.43,10.0,SSE,6.9,-,N/A,,Partly Cloudy,150,2013-12-14 09:53:00
2:53 AM,46.0,42.1,86,30.45,10.0,SSE,8.1,-,N/A,,Overcast,150,2013-12-14 10:53:00
3:53 AM,46.0,42.1,86,30.42,10.0,SSE,11.5,-,N/A,,Mostly Cloudy,150,2013-12-14 11:53:00
4:06 AM,44.6,42.8,93,30.40,10.0,SE,8.1,-,N/A,,Scattered Clouds,140,2013-12-14 12:06:00
4:51 AM,46.4,42.8,87,30.40,10.0,Calm,Calm,-,N/A,,Mostly Cloudy,0,2013-12-14 12:51:00
4:53 AM,46.0,42.1,86,30.40,10.0,Calm,Calm,-,N/A,,Mostly Cloudy,0,2013-12-14 12:53:00
5:53 AM,46.0,41.0,83,30.38,10.0,Variable,3.5,-,N/A,,Scattered Clouds,0,2013-12-14 13:53:00
6:53 AM,44.1,41.0,89,30.36,10.0,SSE,5.8,-,N/A,,Scattered Clouds,160,2013-12-14 14:53:00
7:53 AM,44.1,41.0,89,30.37,10.0,SE,6.9,-,N/A,,Scattered Clouds,140,2013-12-14 15:53:00
8:53 AM,44.1,39.9,85,30.37,10.0,SE,5.8,-,N/A,,Mostly Cloudy,140,2013-12-14 16:53:00
9:53 AM,45.0,41.0,86,30.39,10.0,SSE,10.4,-,N/A,,Mostly Cloudy,150,2013-12-14 17:53:00
10:53 AM,45.0,41.0,86,30.40,10.0,SSE,9.2,-,N/A,,Overcast,150,2013-12-14 18:53:00
11:53 AM,46.0,41.0,83,30.38,10.0,SSE,10.4,-,N/A,,Overcast,150,2013-12-14 19:53:00
12:53 PM,48.0,41.0,77,30.36,10.0,SE,10.4,-,N/A,,Mostly Cloudy,140,2013-12-14 20:53:00
1:53 PM,46.9,41.0,80,30.36,10.0,SSE,8.1,-,N/A,,Mostly Cloudy,150,2013-12-14 21:53:00
2:53 PM,48.0,42.1,80,30.36,10.0,SSE,9.2,-,N/A,,Clear,160,2013-12-14 22:53:00
3:53 PM,48.9,42.1,77,30.36,10.0,SSE,10.4,-,N/A,,Mostly Cloudy,150,2013-12-14 23:53:00
4:53 PM,48.0,42.1,80,30.37,10.0,SSE,6.9,-,N/A,,Mostly Cloudy,150,2013-12-15 00:53:00
5:53 PM,48.9,42.1,77,30.36,10.0,SE,12.7,-,N/A,,Mostly Cloudy,140,2013-12-15 01:53:00
6:53 PM,48.9,42.1,77,30.36,10.0,SSE,10.4,-,N/A,,Mostly Cloudy,150,2013-12-15 02:53:00
7:53 PM,50.0,42.1,74,30.36,10.0,SSE,8.1,-,N/A,,Mostly Cloudy,150,2013-12-15 03:53:00
8:10 PM,50.0,42.8,76,30.36,10.0,SE,6.9,-,N/A,,Mostly Cloudy,130,2013-12-15 04:10:00
8:53 PM,50.0,42.1,74,30.38,10.0,SE,5.8,-,N/A,,Mostly Cloudy,130,2013-12-15 04:53:00
9:53 PM,48.9,43.0,80,30.37,10.0,SE,10.4,-,0.00,,Overcast,140,2013-12-15 05:53:00
10:53 PM,50.0,42.1,74,30.36,10.0,SSE,11.5,-,N/A,,Overcast,160,2013-12-15 06:53:00
11:53 PM,50.0,42.1,74,30.37,10.0,South,12.7,-,N/A,,Overcast,170,2013-12-15 07:53:00